Wind_Speed
4 5 6 5 3 2 3 3 4 5 6 7 8 9 10 11 12 13 13 13 13 13 13 13 14 14 15 16 17 17 17 17 17 17 16 16 15 15 15 14 13 13 12 11 10 10 11 10 10
6 6 7 5 4 5 4 4 5 7 8 9 10 11 12 13 14 15 15 16 16 15 15 16 16 17 17 18 19 19 19 19 19 19 19 18 18 17 17 17 15 15 14 13 12 11 11 11 10
7 8 8 6 5 6 6 5 7 8 9 10 12 13 14 15 17 17 18 18 18 19 19 19 19 20 21 21 21 22 21 21 21 22 21 20 20 19 19 19 18 17 16 15 14 13 12 12 11
8 10 9 7 7 6 7 8 9 10 11 12 13 15 16 17 18 19 20 20 21 22 22 22 22 23 23 24 24 25 24 23 24 23 23 23 22 22 21 20 20 19 18 18 16 15 14 13 12
9 11 11 9 8 7 8 10 11 12 13 13 15 16 18 19 19 20 20 21 22 22 23 24 24 24 25 27 27 27 27 26 26 26 26 25 24 24 23 23 23 21 20 20 19 17 15 14 13
11 12 13 12 9 9 10 11 12 13 15 15 16 18 19 19 19 19 20 20 20 21 22 23 23 24 25 26 26 27 28 29 29 28 28 28 26 26 26 25 24 23 22 21 20 19 18 16 15
12 13 14 13 12 12 12 13 14 16 16 16 17 18 18 18 18 18 19 19 19 20 20 21 21 22 22 23 24 25 27 29 30 30 30 30 29 28 28 27 26 25 24 23 21 21 20 19 17
14 15 14 14 14 14 14 14 15 16 16 17 17 16 17 17 17 17 18 18 18 18 18 19 19 20 20 21 22 23 24 26 28 29 30 30 31 30 29 29 28 27 26 25 23 23 22 20 19
15 15 15 14 14 15 14 15 16 17 17 16 16 16 16 16 16 17 16 16 17 17 17 18 18 18 19 20 21 23 23 24 25 27 29 30 31 31 31 31 29 28 28 27 26 25 24 21 20
16 15 15 15 14 14 14 16 17 16 15 15 15 14 15 15 15 15 15 15 15 16 16 16 17 17 18 19 20 21 23 24 24 25 26 28 29 30 31 32 31 30 29 28 27 25 24 23 21
17 17 15 15 15 15 16 15 14 14 14 14 13 14 14 14 14 14 14 14 15 15 15 16 16 17 18 19 19 20 21 22 23 24 25 26 27 28 30 31 32 31 29 28 27 26 25 24 23
18 17 17 16 15 15 15 15 14 13 13 13 13 13 13 12 12 12 13 13 14 15 15 15 16 16 17 18 18 19 19 20 21 22 23 25 25 26 27 29 31 31 31 30 28 27 25 24 24
19 18 16 15 14 15 15 14 13 12 11 11 12 11 10 10 11 11 12 13 14 15 15 16 16 17 17 18 18 18 18 18 19 19 20 22 23 25 26 27 29 30 30 30 29 29 27 26 25
19 18 17 15 14 15 14 13 12 11 10 10 10 9 9 9 9 11 12 13 14 15 16 16 17 17 18 18 18 18 18 18 18 18 18 19 21 22 24 24 26 28 29 29 30 30 28 28 26
19 18 16 14 12 12 12 12 11 10 9 9 9 8 7 8 9 10 11 13 14 15 16 17 17 18 19 19 19 19 18 18 17 17 16 17 18 19 20 22 23 26 28 28 28 29 29 29 29
19 17 15 12 11 12 12 12 10 9 8 8 7 6 6 7 9 10 11 12 14 15 16 17 18 19 19 20 20 19 19 18 17 16 15 15 15 15 17 18 20 23 25 26 26 27 28 28 29
18 17 14 12 11 10 10 11 10 9 8 7 6 5 5 6 8 9 11 12 14 15 16 17 18 19 20 20 20 20 19 19 18 16 15 13 13 13 13 15 17 19 22 24 25 26 27 27 28
17 15 12 12 11 10 10 10 10 9 7 6 5 4 4 5 7 8 10 12 14 15 16 18 19 20 21 21 21 20 20 19 18 17 15 13 12 11 11 12 15 17 19 21 23 24 25 26 28
17 14 12 12 11 10 10 11 10 9 7 6 5 3 2 4 6 8 10 12 13 15 16 18 19 20 21 21 21 21 21 20 19 18 16 14 12 11 10 10 11 13 16 19 21 22 23 24 27
16 14 14 12 11 11 10 10 10 8 7 6 4 3 1 3 5 7 9 11 13 15 16 18 19 21 21 21 22 22 21 20 19 18 17 15 13 11 10 9 8 10 12 15 18 20 22 23 25
14 14 14 13 12 12 11 10 10 8 7 5 5 4 2 2 4 6 8 11 13 14 16 18 19 20 21 21 22 22 21 20 19 18 17 16 14 13 11 9 8 7 9 11 14 17 20 22 23
15 15 15 14 13 12 12 10 10 9 7 6 5 4 2 2 3 5 8 10 12 14 16 17 19 20 21 21 22 22 22 21 20 19 18 17 15 13 12 10 8 7 7 9 12 14 17 20 22
16 16 15 14 14 12 11 11 10 9 8 6 6 5 3 1 2 5 8 10 12 14 15 17 18 19 20 21 22 22 22 22 21 20 19 18 16 14 12 11 10 8 7 7 10 12 15 17 20
16 15 15 14 13 12 11 10 9 9 8 7 6 5 2 0 2 5 8 10 12 14 15 16 17 18 19 20 21 22 22 22 21 21 19 19 17 15 13 11 10 9 9 7 8 10 13 15 18
15 15 15 14 13 11 11 10 9 9 9 7 6 5 2 1 2 5 8 10 12 13 15 16 17 18 19 20 21 21 21 21 21 21 20 19 18 17 15 13 12 11 10 9 8 10 12 14 17
15 15 15 14 13 12 11 10 10 10 10 8 7 5 3 2 3 5 8 10 12 13 14 15 16 17 18 19 20 21 21 21 21 21 20 19 19 18 16 15 13 12 11 10 9 9 10 12 15
15 15 15 15 14 13 11 10 10 11 10 9 7 5 3 2 3 6 8 10 12 13 14 15 16 17 18 18 19 20 20 20 20 20 20 20 19 18 17 16 15 14 12 11 10 9 10 12 13
14 14 15 16 15 13 11 10 10 11 10 9 8 6 4 3 4 6 8 10 11 13 13 14 15 16 17 18 19 19 20 20 20 20 20 19 19 19 18 17 16 15 14 12 11 11 11 12 13
14 15 16 16 15 14 12 11 12 12 11 10 8 6 5 4 5 6 8 10 11 12 13 14 15 16 17 18 19 19 20 20 20 20 20 19 19 19 19 18 17 16 15 13 13 12 12 12 12
14 15 15 16 16 14 12 11 13 12 11 10 9 7 6 5 6 7 8 9 11 12 13 14 15 16 16 17 18 19 20 20 20 20 19 19 19 19 19 18 18 17 15 14 14 13 13 12 11
Wind_Direction
314 306 303 309 319 341 357 346 342 342 338 329 323 318 314 309 307 306 306 303 300 297 294 291 289 289 288 285 283 279 278 280 280 279 278 276 276 273 274 274 274 272 272 272 272 274 274 273 270
299 299 294 311 326 342 344 338 324 326 324 322 319 315 312 309 308 306 304 301 296 291 290 290 288 286 285 281 280 278 277 278 278 278 275 274 274 272 271 271 269 270 269 269 269 270 271 271 268
292 288 297 317 338 334 330 323 310 311 312 313 313 312 311 309 307 304 300 298 294 289 287 287 284 282 280 278 278 276 276 276 275 275 274 273 273 272 272 271 268 267 267 267 267 266 266 266 265
286 286 294 316 322 321 320 312 307 308 309 310 311 311 311 310 307 303 299 295 292 290 288 285 282 280 278 276 276 274 273 275 274 272 270 272 273 272 272 272 270 265 264 263 262 262 262 262 261
278 279 292 304 308 311 314 310 310 309 307 311 312 311 311 310 307 303 299 296 294 292 290 288 285 283 280 279 276 274 272 272 269 270 270 270 270 268 270 270 268 264 264 261 258 256 256 257 257
272 276 287 297 308 310 313 312 308 305 307 311 312 311 311 310 309 306 303 301 298 296 293 291 288 285 281 278 276 274 272 270 269 267 267 267 268 265 265 267 265 263 260 261 258 253 252 252 252
263 271 281 293 302 304 304 306 308 306 307 312 313 313 314 314 312 310 308 306 304 301 299 296 294 291 287 284 281 278 275 271 270 268 266 266 266 263 263 265 263 261 260 258 255 253 250 249 249
260 271 282 286 294 295 299 302 305 306 310 313 313 314 316 316 315 314 312 311 309 307 304 302 300 298 295 291 286 283 280 276 272 269 268 266 264 262 262 261 260 259 260 257 253 250 248 247 245
258 270 281 285 292 293 297 300 303 305 310 313 314 316 319 319 318 317 317 316 315 312 310 309 306 303 300 295 290 286 283 280 276 273 269 267 264 262 261 260 258 259 257 255 252 249 245 246 243
257 267 275 282 291 296 297 301 304 306 311 313 316 319 321 321 320 322 324 326 326 325 322 319 315 311 307 303 298 292 287 284 280 276 272 269 265 262 259 258 257 257 255 254 251 247 243 242 241
253 261 270 279 288 295 297 298 304 308 311 315 318 324 325 324 326 329 332 334 335 335 333 330 325 320 315 311 306 300 293 288 283 279 274 271 267 262 258 255 254 253 251 250 249 247 243 241 241
249 259 268 275 284 291 297 302 306 310 312 316 319 325 327 329 333 337 340 341 341 340 339 338 335 331 326 320 315 311 304 297 291 285 279 273 269 264 260 256 253 251 248 247 248 246 243 239 238
248 258 267 274 283 290 296 301 307 311 312 314 319 324 328 333 340 346 348 349 349 348 348 346 343 340 337 332 327 321 315 308 301 293 284 277 272 267 261 258 253 250 248 246 245 244 242 239 238
247 255 262 268 282 292 291 297 305 307 309 315 318 322 328 338 349 355 357 357 358 357 355 353 350 347 343 339 335 330 324 317 310 303 293 284 278 270 263 257 252 248 247 246 244 243 239 237 236
246 252 258 268 282 287 287 292 300 301 303 309 313 318 331 347 360 4 5 5 5 3 1 358 355 353 350 347 344 340 335 329 322 314 304 295 285 275 266 258 251 247 245 244 243 242 237 235 233
245 252 255 266 279 282 282 287 293 294 297 303 308 318 338 357 9 11 11 9 8 7 5 3 1 359 358 355 352 349 345 340 334 327 317 307 297 283 272 263 253 247 245 242 240 239 237 235 233
244 249 253 261 272 277 282 285 286 287 289 293 299 315 342 5 15 16 14 12 11 9 8 7 6 4 3 1 359 356 352 348 344 337 330 321 309 296 282 269 257 249 245 241 237 237 236 233 231
244 251 255 262 266 274 280 282 280 279 278 280 287 304 340 6 19 17 14 13 12 11 10 9 8 7 5 4 2 0 358 355 352 349 343 335 325 312 297 281 263 253 246 240 237 236 235 233 232
242 249 255 261 264 270 275 276 273 269 265 266 270 284 326 7 19 16 14 14 13 12 11 10 9 8 7 6 4 3 1 360 358 356 354 349 341 330 317 297 273 258 250 243 238 236 235 234 232
242 248 254 259 266 267 269 272 268 259 250 251 254 258 289 4 17 17 16 15 14 13 11 11 10 9 8 7 6 5 3 2 1 360 358 355 351 343 334 321 291 265 254 245 239 236 235 235 232
240 246 253 259 263 266 266 263 260 250 241 240 241 246 269 350 13 18 16 14 14 13 12 12 11 10 10 8 7 7 6 5 4 3 2 2 360 355 347 337 320 286 262 251 243 237 236 236 234
235 244 250 255 259 262 262 256 251 244 236 233 238 243 263 320 11 16 13 12 13 12 11 11 11 10 10 9 8 8 8 8 8 7 5 5 3 0 357 352 342 320 285 262 250 242 240 238 236
234 242 249 254 259 260 262 259 246 240 231 232 234 241 256 299 13 13 11 11 12 11 10 10 9 10 10 10 10 10 10 10 10 9 8 6 4 1 358 356 351 340 318 282 258 249 243 241 239
234 243 250 256 258 260 260 258 245 240 234 228 228 236 243 294 9 8 8 9 9 8 8 7 7 8 9 9 9 9 10 11 11 10 9 8 6 4 360 356 352 346 335 310 277 260 251 246 243
236 245 251 256 259 261 257 253 246 240 236 229 227 228 231 277 356 4 6 7 6 5 5 5 5 6 6 6 6 7 9 9 10 10 9 8 7 6 3 358 352 344 337 323 298 277 265 257 251
240 248 254 259 261 259 252 249 243 239 235 229 224 226 240 280 342 355 1 1 1 1 2 3 3 4 4 4 5 5 6 7 7 8 8 7 6 6 4 1 356 348 340 332 315 294 278 268 260
242 249 254 259 260 257 251 243 239 236 233 228 223 231 248 284 327 345 352 355 357 359 1 2 2 2 3 3 4 4 4 4 4 4 5 6 6 5 3 360 357 353 346 339 328 311 292 278 269
248 252 256 260 262 257 249 242 234 229 227 226 227 234 245 277 314 334 344 350 353 356 358 359 360 0 1 2 2 3 3 2 2 2 3 4 3 4 4 2 358 354 349 343 335 323 306 291 280
255 258 259 260 261 259 250 236 228 226 225 226 230 235 247 276 308 327 338 345 350 353 355 356 357 358 358 359 360 360 0 1 1 1 2 1 0 1 1 1 359 356 351 346 340 331 320 306 292
258 260 260 260 260 258 249 228 226 224 224 227 231 238 252 276 301 317 330 340 347 350 352 353 353 353 355 355 356 357 357 358 358 358 359 358 358 358 358 358 357 355 352 349 345 338 330 320 307
Height
5892 5891 5890 5890 5889 5889 5888 5888 5887 5887 5887 5886 5885 5884 5884 5883 5883 5884 5880 5878 5877 5876 5875 5873 5873 5872 5871 5870 5869 5869 5868 5868 5867 5867 5867 5867 5867 5868 5868 5868 5869 5870 5870 5871 5871 5872 5872 5872 5873
5891 5890 5890 5889 5888 5888 5888 5887 5887 5886 5886 5885 5884 5883 5882 5880 5879 5878 5876 5875 5874 5873 5872 5871 5870 5869 5868 5867 5866 5865 5864 5864 5864 5864 5864 5864 5864 5864 5865 5865 5866 5867 5867 5868 5869 5869 5870 5870 5871
5890 5889 5888 5887 5887 5888 5887 5886 5886 5885 5884 5883 5882 5881 5880 5878 5877 5875 5874 5872 5871 5870 5869 5868 5867 5865 5865 5863 5862 5862 5861 5861 5861 5860 5860 5860 5860 5861 5861 5862 5863 5863 5864 5865 5866 5866 5867 5868 5868
5889 5888 5888 5887 5887 5887 5886 5885 5884 5883 5883 5882 5881 5879 5877 5876 5874 5872 5870 5869 5867 5866 5865 5864 5863 5861 5860 5859 5859 5858 5857 5857 5856 5856 5856 5856 5856 5856 5857 5858 5859 5859 5860 5861 5863 5863 5864 5865 5866
5888 5887 5886 5886 5886 5886 5885 5884 5883 5882 5881 5880 5878 5877 5875 5873 5871 5869 5867 5865 5864 5862 5861 5859 5858 5857 5856 5855 5854 5853 5852 5852 5851 5851 5851 5851 5852 5852 5852 5853 5854 5855 5856 5857 5858 5860 5861 5862 5863
5887 5886 5886 5885 5884 5884 5884 5883 5881 5880 5879 5877 5876 5874 5872 5870 5868 5865 5863 5861 5860 5858 5856 5855 5853 5852 5851 5849 5848 5848 5847 5846 5846 5846 5846 5846 5846 5846 5847 5848 5849 5850 5851 5852 5854 5856 5857 5859 5860
5885 5884 5884 5884 5883 5882 5882 5881 5880 5879 5877 5875 5873 5871 5869 5867 5864 5862 5860 5858 5856 5854 5852 5850 5848 5846 5845 5844 5843 5842 5841 5840 5840 5839 5840 5840 5840 5841 5842 5843 5844 5844 5846 5847 5849 5851 5853 5855 5857
5882 5883 5881 5881 5881 5881 5880 5879 5878 5876 5875 5873 5871 5868 5866 5864 5862 5859 5857 5855 5853 5850 5848 5846 5844 5842 5840 5839 5838 5836 5835 5834 5834 5833 5833 5833 5834 5834 5836 5837 5838 5839 5841 5842 5844 5846 5848 5850 5852
5879 5881 5879 5879 5879 5878 5878 5877 5876 5874 5872 5870 5868 5866 5864 5861 5859 5857 5854 5852 5850 5847 5845 5843 5840 5838 5836 5834 5833 5831 5830 5828 5827 5827 5827 5827 5827 5828 5829 5830 5832 5833 5835 5836 5838 5840 5843 5845 5848
5877 5878 5877 5877 5877 5876 5875 5875 5873 5872 5870 5868 5866 5863 5861 5859 5856 5854 5851 5849 5846 5844 5842 5839 5837 5835 5832 5830 5828 5826 5824 5823 5822 5821 5820 5820 5820 5821 5822 5824 5825 5827 5829 5831 5832 5835 5837 5840 5842
5874 5875 5875 5875 5874 5874 5873 5872 5871 5869 5868 5866 5864 5861 5859 5856 5854 5852 5849 5846 5844 5842 5839 5837 5834 5831 5829 5826 5824 5821 5819 5817 5816 5814 5814 5813 5814 5814 5815 5817 5818 5820 5822 5825 5827 5829 5831 5834 5837
5871 5871 5872 5872 5872 5872 5871 5870 5869 5867 5866 5864 5862 5859 5857 5854 5852 5850 5847 5845 5842 5840 5837 5835 5831 5829 5826 5823 5820 5817 5814 5812 5810 5809 5808 5807 5807 5807 5808 5809 5811 5813 5816 5819 5821 5824 5826 5829 5832
5868 5868 5869 5869 5869 5869 5868 5867 5866 5865 5863 5861 5859 5857 5855 5853 5851 5848 5846 5844 5841 5838 5835 5832 5829 5826 5823 5820 5816 5813 5810 5808 5805 5803 5802 5801 5801 5801 5802 5802 5804 5806 5809 5812 5815 5817 5821 5824 5827
5864 5865 5866 5866 5866 5866 5866 5865 5864 5863 5861 5860 5858 5856 5854 5852 5850 5847 5844 5842 5840 5837 5834 5831 5828 5824 5821 5817 5813 5810 5806 5803 5801 5799 5797 5796 5795 5795 5795 5796 5797 5800 5802 5805 5808 5811 5815 5818 5822
5861 5863 5864 5864 5864 5864 5864 5863 5862 5861 5859 5858 5856 5854 5852 5850 5848 5846 5843 5841 5839 5836 5832 5829 5826 5823 5819 5815 5811 5807 5803 5800 5797 5794 5792 5791 5789 5789 5789 5790 5791 5793 5796 5799 5802 5805 5808 5812 5816
5858 5860 5861 5862 5862 5861 5863 5861 5860 5858 5857 5856 5854 5853 5851 5849 5847 5845 5843 5840 5838 5835 5832 5828 5825 5822 5817 5813 5809 5805 5801 5798 5794 5791 5789 5786 5785 5784 5784 5784 5785 5787 5790 5793 5796 5799 5802 5806 5810
5855 5856 5858 5859 5859 5859 5859 5858 5857 5856 5855 5854 5853 5851 5849 5848 5846 5844 5842 5840 5837 5834 5831 5828 5824 5821 5816 5812 5808 5804 5800 5796 5792 5789 5786 5783 5781 5780 5780 5780 5781 5782 5784 5787 5790 5793 5797 5801 5804
5852 5854 5855 5856 5856 5856 5856 5856 5855 5854 5853 5852 5851 5850 5848 5847 5845 5844 5841 5839 5836 5833 5831 5827 5824 5820 5816 5812 5807 5803 5799 5795 5791 5787 5784 5781 5779 5777 5776 5776 5776 5778 5779 5782 5785 5788 5791 5795 5799
5849 5851 5852 5853 5854 5854 5853 5853 5853 5852 5851 5851 5850 5849 5847 5846 5844 5843 5841 5838 5836 5833 5830 5827 5823 5819 5815 5811 5807 5802 5798 5794 5790 5786 5783 5780 5777 5775 5774 5773 5773 5774 5775 5777 5780 5783 5786 5789 5793
5847 5848 5850 5851 5851 5851 5851 5851 5850 5850 5849 5849 5849 5848 5847 5845 5844 5842 5840 5838 5835 5832 5829 5826 5823 5819 5815 5811 5806 5802 5798 5793 5789 5786 5782 5779 5776 5774 5772 5771 5770 5771 5772 5773 5776 5778 5781 5784 5787
5844 5846 5847 5848 5848 5848 5848 5849 5848 5848 5848 5847 5847 5847 5846 5844 5843 5842 5840 5837 5835 5832 5829 5826 5822 5819 5815 5811 5807 5802 5798 5794 5790 5786 5782 5779 5776 5773 5771 5769 5768 5768 5769 5770 5772 5774 5776 5779 5782
5842 5843 5844 5845 5845 5845 5846 5846 5846 5846 5845 5845 5846 5845 5845 5843 5842 5841 5839 5837 5834 5832 5829 5826 5822 5819 5815 5811 5807 5802 5798 5794 5790 5786 5782 5779 5776 5773 5771 5769 5768 5767 5767 5768 5769 5770 5772 5775 5777
5839 5840 5842 5842 5842 5843 5843 5843 5844 5843 5843 5844 5844 5844 5843 5842 5841 5840 5838 5836 5834 5831 5828 5825 5822 5819 5815 5811 5807 5803 5798 5794 5790 5786 5782 5779 5776 5773 5771 5769 5767 5766 5765 5765 5766 5767 5769 5770 5773
5836 5838 5839 5839 5840 5841 5841 5841 5842 5841 5842 5842 5843 5842 5842 5841 5840 5839 5837 5835 5833 5830 5828 5825 5822 5818 5815 5811 5807 5803 5799 5795 5791 5787 5783 5779 5776 5773 5771 5768 5767 5765 5764 5763 5763 5764 5765 5766 5768
5834 5836 5837 5837 5837 5838 5838 5838 5840 5840 5840 5841 5841 5841 5840 5840 5839 5838 5836 5834 5832 5829 5827 5824 5821 5818 5815 5811 5807 5803 5799 5795 5791 5788 5784 5780 5776 5773 5770 5768 5766 5764 5762 5761 5761 5761 5761 5762 5763
5832 5833 5835 5835 5835 5835 5835 5836 5838 5838 5838 5839 5839 5839 5839 5838 5838 5836 5835 5833 5831 5829 5826 5823 5820 5818 5814 5811 5807 5804 5800 5796 5792 5788 5784 5781 5777 5773 5770 5768 5765 5763 5761 5759 5758 5757 5757 5758 5758
5829 5830 5831 5832 5832 5833 5833 5835 5836 5836 5836 5837 5837 5838 5837 5837 5836 5835 5834 5832 5830 5827 5825 5822 5820 5817 5814 5811 5807 5804 5800 5796 5792 5789 5785 5781 5777 5774 5770 5767 5764 5761 5759 5757 5755 5754 5754 5754 5754
5827 5828 5828 5829 5829 5830 5831 5832 5833 5834 5834 5835 5836 5836 5836 5836 5835 5834 5832 5831 5829 5826 5824 5822 5819 5816 5813 5810 5807 5803 5800 5796 5792 5788 5784 5781 5777 5774 5770 5767 5763 5760 5758 5755 5753 5752 5750 5749 5749
5825 5826 5825 5826 5827 5827 5828 5832 5831 5831 5832 5833 5834 5834 5834 5834 5833 5832 5831 5829 5827 5825 5823 5821 5818 5816 5813 5810 5806 5803 5799 5796 5792 5788 5784 5781 5777 5773 5770 5766 5763 5759 5756 5754 5751 5749 5747 5746 5745
5822 5822 5823 5823 5824 5824 5825 5830 5828 5829 5829 5830 5831 5832 5832 5832 5832 5831 5830 5828 5826 5824 5822 5820 5817 5814 5812 5809 5805 5802 5799 5795 5791 5788 5784 5780 5777 5773 5769 5765 5762 5758 5755 5752 5749 5747 5744 5742 5740